SQ5TM-1 Weather Reports


time (UTC)temp
F
wind
direction
speed
knots
gust
knots
rain 1hr
in
rain 24hr
in
rain mn
in
humidity
%
barometer
mb
20260507020337 60 0 0.0 0.0 0.00 0.00 0.00 74 994.0
20260507014813 60 0 0.0 0.0 0.00 0.00 0.00 75 994.0
20260507013248 60 0 0.0 0.0 0.00 0.00 0.00 74 994.0
20260507011723 61 0 0.0 0.0 0.00 0.00 0.00 72 994.0
20260507010158 61 0 0.0 0.0 0.00 0.00 0.00 70 994.0
20260507004634 62 0 0.0 0.0 0.00 0.00 0.00 68 994.0
20260507003109 62 0 0.0 0.0 0.00 0.00 0.00 66 994.0
20260507001545 62 0 0.0 0.0 0.00 0.00 0.00 64 994.0
20260507000020 63 0 0.0 0.0 0.00 0.00 0.00 62 994.0
20260506234456 64 0 0.0 0.0 0.00 0.00 0.00 61 994.0
20260506232931 66 0 0.0 0.0 0.00 0.00 0.00 59 994.0
20260506231407 65 0 0.0 0.0 0.00 0.00 0.00 59 994.0
20260506225843 66 0 0.0 0.0 0.00 0.00 0.00 59 994.0
20260506224318 66 0 0.0 0.0 0.00 0.00 0.00 59 994.0
20260506222754 66 0 0.0 0.0 0.00 0.00 0.00 58 994.0
20260506221229 66 0 0.0 0.0 0.00 0.00 0.00 59 994.0
20260506215705 65 0 0.0 0.0 0.00 0.00 0.00 61 994.0
20260506214140 65 0 0.0 0.0 0.00 0.00 0.00 60 994.0
20260506212616 65 0 0.0 0.0 0.00 0.00 0.00 60 994.0
20260506211051 65 0 0.0 0.0 0.00 0.00 0.00 60 993.0
20260506205527 65 0 0.0 0.0 0.00 0.00 0.00 60 994.0
20260506204002 66 0 0.0 0.0 0.00 0.00 0.00 60 994.0
20260506202438 66 0 0.0 0.0 0.00 0.00 0.00 59 994.0
20260506200914 67 0 0.0 0.0 0.00 0.00 0.00 58 994.0
20260506195350 67 0 0.0 0.0 0.00 0.00 0.00 56 994.0
20260506193825 68 0 0.0 0.0 0.00 0.00 0.00 56 994.0
20260506192743 68 0 0.0 0.0 0.00 0.00 0.00 55 994.0
20260506191621 69 0 0.0 0.0 0.00 0.00 0.00 54 994.0
20260506190056 69 0 0.0 0.0 0.00 0.00 0.00 54 994.0
20260506184532 70 0 0.0 0.0 0.00 0.00 0.00 52 994.0
20260506183008 71 0 0.0 0.0 0.00 0.00 0.00 51 993.0
20260506181444 71 0 0.0 0.0 0.00 0.00 0.00 51 993.0
20260506175919 72 0 0.0 0.0 0.00 0.00 0.00 50 993.0
20260506174355 73 0 0.0 0.0 0.00 0.00 0.00 49 993.0
20260506172831 73 0 0.0 0.0 0.00 0.00 0.00 49 993.0
20260506171306 74 0 0.0 0.0 0.00 0.00 0.00 47 993.0
20260506165742 74 0 0.0 0.0 0.00 0.00 0.00 46 993.0
20260506164219 74 0 0.0 0.0 0.00 0.00 0.00 46 993.0
20260506162652 76 0 0.0 0.0 0.00 0.00 0.00 45 993.0
20260506161128 76 0 0.0 0.0 0.00 0.00 0.00 44 993.0
20260506155604 77 0 0.0 0.0 0.00 0.00 0.00 43 993.0
20260506154426 79 0 0.0 0.0 0.00 0.00 0.00 41 993.0
20260506153316 79 0 0.0 0.0 0.00 0.00 0.00 42 993.0
20260506151941 79 0 0.0 0.0 0.00 0.00 0.00 42 993.0
20260506150416 81 0 0.0 0.0 0.00 0.00 0.00 40 993.0
20260506145750 82 0 0.0 0.0 0.00 0.00 0.00 39 993.0
20260506144226 82 0 0.0 0.0 0.00 0.00 0.00 39 993.0
20260506143034 82 0 0.0 0.0 0.00 0.00 0.00 39 993.0
20260506141510 79 0 0.0 0.0 0.00 0.00 0.00 41 993.0
20260506135946 81 0 0.0 0.0 0.00 0.00 0.00 40 993.0
20260506134421 77 0 0.0 0.0 0.00 0.00 0.00 43 993.0
20260506132857 77 0 0.0 0.0 0.00 0.00 0.00 43 993.0
20260506131332 81 0 0.0 0.0 0.00 0.00 0.00 40 993.0
20260506125808 81 0 0.0 0.0 0.00 0.00 0.00 40 993.0
20260506124243 78 0 0.0 0.0 0.00 0.00 0.00 43 993.0
20260506122719 75 0 0.0 0.0 0.00 0.00 0.00 45 993.0
20260506121154 75 0 0.0 0.0 0.00 0.00 0.00 45 993.0
20260506115630 78 0 0.0 0.0 0.00 0.00 0.00 42 993.0
20260506114106 85 0 0.0 0.0 0.00 0.00 0.00 37 993.0
20260506112541 76 0 0.0 0.0 0.00 0.00 0.00 43 993.0
20260506111017 78 0 0.0 0.0 0.00 0.00 0.00 41 993.0
20260506105452 77 0 0.0 0.0 0.00 0.00 0.00 42 993.0
20260506103928 75 0 0.0 0.0 0.00 0.00 0.00 43 993.0
20260506102404 75 0 0.0 0.0 0.00 0.00 0.00 44 993.0
20260506100840 74 0 0.0 0.0 0.00 0.00 0.00 45 993.0
20260506095316 72 0 0.0 0.0 0.00 0.00 0.00 45 993.0
20260506094825 72 0 0.0 0.0 0.00 0.00 0.00 44 993.0
20260506093301 73 0 0.0 0.0 0.00 0.00 0.00 42 993.0
20260506091736 73 0 0.0 0.0 0.00 0.00 0.00 41 993.0
20260506090211 73 0 0.0 0.0 0.00 0.00 0.00 42 993.0
20260506084647 73 0 0.0 0.0 0.00 0.00 0.00 41 993.0
20260506083122 71 0 0.0 0.0 0.00 0.00 0.00 43 993.0
20260506081558 71 0 0.0 0.0 0.00 0.00 0.00 44 993.0
20260506072945 69 0 0.0 0.0 0.00 0.00 0.00 47 993.0
20260506071421 68 0 0.0 0.0 0.00 0.00 0.00 48 993.0
20260506061243 61 0 0.0 0.0 0.00 0.00 0.00 59 993.0
20260506051105 57 0 0.0 0.0 0.00 0.00 0.00 74 994.0
20260506050758 57 0 0.0 0.0 0.00 0.00 0.00 75 994.0
20260506043709 55 0 0.0 0.0 0.00 0.00 0.00 77 993.0
20260506042145 55 0 0.0 0.0 0.00 0.00 0.00 77 993.0
20260506040620 55 0 0.0 0.0 0.00 0.00 0.00 77 994.0
20260506035056 55 0 0.0 0.0 0.00 0.00 0.00 77 994.0
20260506034558 55 0 0.0 0.0 0.00 0.00 0.00 76 994.0
20260506033034 54 0 0.0 0.0 0.00 0.00 0.00 75 994.0
20260506031509 54 0 0.0 0.0 0.00 0.00 0.00 73 994.0
20260506025945 54 0 0.0 0.0 0.00 0.00 0.00 73 994.0
20260506024420 53 0 0.0 0.0 0.00 0.00 0.00 73 994.0
20260506022856 54 0 0.0 0.0 0.00 0.00 0.00 72 994.0